Flag for Finland Weather past 2 weeks in Vantaa, Finland

Now
52 °F

Rain. Passing clouds.


Feels Like: 46 °F
Forecast: 51 / 61 °F
Wind: 20 mph from South

Location: Helsinki-Vantaa

Current Time: Jun 3, 2015 at 5:10:03 AM

Latest Report: Jun 3, 2015 at 4:20 AM


Visibility: 3 mi

Pressure: 29.56 "Hg

Humidity: 94%

Dew point: 50 °F

Location of VantaaLocation

Historic Weather in Vantaa — Graph

°F

Vantaa temperature yesterday

Maximum temperature yesterday: 64 °F (at 2:50 PM)
Minimum temperature yesterday: 50 °F (at 12:20 AM)
Average temperature yesterday: 56 °F

Past Weeks' High & Low Weather Summary

 TemperatureHumidityPressure
High66 °F (Jun 1, 2:20 PM)100% (May 22, 5:20 AM)30.12 "Hg (May 22, 5:20 AM)
Low39 °F (May 26, 5:20 AM)31% (May 19, 7:20 PM)29.59 "Hg (Jun 3, 3:20 AM)
Average53 °F66%29.86 "Hg
* Reported May 19 3:20 AM — Jun 3 3:50 AM, Vantaa, Weather by CustomWeather, © 2015

Note: Actual official high and low records may vary slightly from our data, if they occured in-between our weather recording intervals... More about our weather records

Advertising

Vantaa weather history for previous 24 hours

 ConditionsComfort  
Time TempWeatherWind HumidityBarometerVisibility
3:50 AM
Wed, Jun 3
52 °FLight rain. Fog.22 mph88%29.59 "Hg3 mi
3:20 AM54 °FLight rain. Passing clouds.15 mph88%29.59 "HgN/A
2:50 AM54 °FLight rain. Passing clouds.17 mph88%29.62 "Hg4 mi
2:20 AM54 °FPassing clouds.17 mph82%29.62 "HgN/A
1:50 AM52 °FPassing clouds.13 mph94%29.65 "HgN/A
1:20 AM52 °FPartly cloudy.13 mph88%29.65 "HgN/A
12:20 AM52 °FLight rain. Passing clouds.10 mph82%29.71 "HgN/A
11:50 PM
Tue, Jun 2
54 °FPartly cloudy.9 mph77%29.71 "HgN/A
11:20 PM54 °FSunny.7 mph72%29.74 "Hg10 mi
10:50 PM54 °FBroken clouds.5 mph72%29.74 "HgN/A
10:20 PM54 °FPartly sunny.5 mph72%29.74 "HgN/A
9:50 PM54 °FPartly sunny.3 mph72%29.74 "HgN/A
9:20 PM54 °FSunny.6 mph67%29.77 "Hg10 mi
8:50 PM55 °FLight rain. Partly sunny.7 mph59%29.77 "HgN/A
8:20 PM55 °FLight rain. Clear.7 mph59%29.80 "HgN/A
7:50 PM57 °FLight rain. Clear.9 mph51%29.80 "HgN/A
7:20 PM57 °FSunny.9 mph51%29.83 "Hg10 mi
6:50 PM59 °FSunny.10 mph55%29.83 "Hg10 mi
6:20 PM59 °FSunny.10 mph55%29.86 "Hg10 mi
5:50 PM59 °FSunny.12 mph51%29.86 "Hg10 mi
5:20 PM61 °FBroken clouds.13 mph48%29.89 "HgN/A
4:50 PM63 °FPartly sunny.10 mph45%29.86 "HgN/A
4:20 PM63 °FPassing clouds.10 mph42%29.89 "HgN/A
3:50 PM63 °FPassing clouds.12 mph42%29.89 "HgN/A
3:20 PM63 °FSunny.14 mph42%29.92 "Hg10 mi
2:50 PM64 °FSunny.14 mph40%29.92 "Hg10 mi
2:20 PM63 °FSunny.13 mph45%29.92 "Hg10 mi
1:50 PM61 °FSunny.15 mph45%29.95 "Hg10 mi
1:20 PM61 °FSunny.15 mph45%29.95 "Hg10 mi
12:50 PM61 °FSunny.13 mph42%29.95 "Hg10 mi
12:20 PM61 °FPassing clouds.10 mph42%29.95 "HgN/A
11:50 AM59 °FSunny.13 mph45%29.95 "Hg10 mi
11:20 AM59 °FSunny.13 mph45%29.95 "Hg10 mi
10:50 AM59 °FSunny.12 mph42%29.98 "Hg10 mi
10:20 AM59 °FSunny.7 mph42%29.98 "Hg10 mi
9:50 AM59 °FPassing clouds.6 mph45%29.98 "HgN/A
9:20 AM57 °FSunny.8 mph48%29.98 "Hg10 mi
8:50 AM55 °FSunny.7 mph59%29.95 "Hg10 mi
8:20 AM55 °FSunny.7 mph59%29.98 "Hg10 mi
7:50 AM54 °FSunny.9 mph63%29.95 "Hg10 mi
7:20 AM54 °FSunny.7 mph67%29.95 "Hg10 mi
6:20 AM50 °FSunny.7 mph88%29.95 "Hg10 mi
5:50 AM50 °FSunny.7 mph88%29.95 "Hg10 mi
5:20 AM50 °FSunny.6 mph88%29.95 "Hg10 mi
Weather by CustomWeather, © 2015

See weather overviewHow to use our weather pages